When you browse on this site, cookies collect data to enhance your experience and personalize the content and advertising you see.
Visit our Privacy Policy to learn more. By continuing to use the site, you agree to this use of cookies and data.
  • în România
  • Lista ţărilor
  • Pe 7 zile
  • Temperatura apei
  • Hartă satelitară
  • Meteo pe hartă
  • Widget-uri
  • user-avatar
    Intrare

    Meteo pe oră la Arnoldstein

    Astăzi, 25 Aprilie, Joi

    Timp Temperatura Precipitaţii Vânt Presiune Umiditate
    00:00 +10°C° 0.1 mm 1 m/s 690 mmHg 97%
    01:00 +10°C° 0 mm 2 m/s 690 mmHg 97%
    02:00 +10°C° 0.2 mm 2 m/s 691 mmHg 97%
    03:00 +11°C° 0.2 mm 1 m/s 691 mmHg 96%
    04:00 +11°C° 0.2 mm 1 m/s 691 mmHg 96%
    05:00 +11°C° 0.1 mm 1 m/s 691 mmHg 95%
    06:00 +10°C° 0.1 mm 2 m/s 691 mmHg 94%
    07:00 +12°C° 0 mm 2 m/s 691 mmHg 93%
    08:00 +13°C° 0 mm 2 m/s 692 mmHg 88%
    09:00 +14°C° 0 mm 2 m/s 692 mmHg 82%
    10:00 +13°C° 0 mm 3 m/s 692 mmHg 77%
    11:00 +14°C° 0 mm 3 m/s 692 mmHg 72%
    12:00 +16°C° 0 mm 3 m/s 692 mmHg 66%
    13:00 +17°C° 0 mm 3 m/s 692 mmHg 61%
    14:00 +17°C° 0 mm 3 m/s 692 mmHg 61%
    15:00 +17°C° 0 mm 3 m/s 691 mmHg 62%
    16:00 +17°C° 0 mm 3 m/s 691 mmHg 62%
    17:00 +14°C° 0 mm 3 m/s 691 mmHg 71%
    18:00 +14°C° 0 mm 2 m/s 691 mmHg 80%
    19:00 +12°C° 0 mm 2 m/s 690 mmHg 89%
    20:00 +12°C° 0.1 mm 1 m/s 690 mmHg 91%
    21:00 +12°C° 0.1 mm 1 m/s 691 mmHg 93%
    22:00 +11°C° 0.1 mm 1 m/s 691 mmHg 95%
    23:00 +11°C° 0 mm 1 m/s 691 mmHg 95%

    Mâine, 26 Aprilie, Vineri

    Timp Temperatura Precipitaţii Vânt Presiune Umiditate
    00:00 +12°C° 0 mm 1 m/s 690 mmHg 95%
    01:00 +12°C° 0 mm 1 m/s 690 mmHg 95%
    02:00 +11°C° 0 mm 1 m/s 690 mmHg 95%
    03:00 +11°C° 0 mm 1 m/s 690 mmHg 96%
    04:00 +11°C° 0 mm 1 m/s 690 mmHg 96%
    05:00 +12°C° 0 mm 2 m/s 689 mmHg 94%
    06:00 +12°C° 0 mm 2 m/s 689 mmHg 92%
    07:00 +12°C° 0 mm 2 m/s 689 mmHg 91%
    08:00 +13°C° 0.1 mm 2 m/s 689 mmHg 90%
    09:00 +13°C° 0.1 mm 2 m/s 689 mmHg 88%
    10:00 +13°C° 0.1 mm 2 m/s 688 mmHg 87%
    11:00 +14°C° 0.1 mm 2 m/s 688 mmHg 85%
    12:00 +14°C° 0.1 mm 2 m/s 688 mmHg 83%
    13:00 +13°C° 0.1 mm 3 m/s 688 mmHg 81%
    14:00 +13°C° 0.4 mm 3 m/s 688 mmHg 81%
    15:00 +14°C° 0.4 mm 2 m/s 688 mmHg 80%
    16:00 +14°C° 0.4 mm 2 m/s 689 mmHg 80%
    17:00 +13°C° 0.2 mm 2 m/s 689 mmHg 84%
    18:00 +12°C° 0.2 mm 2 m/s 689 mmHg 88%
    19:00 +10°C° 0.2 mm 2 m/s 689 mmHg 93%
    20:00 +10°C° 0 mm 1 m/s 689 mmHg 93%
    21:00 +10°C° 0 mm 1 m/s 689 mmHg 94%
    22:00 +9°C° 0 mm 1 m/s 689 mmHg 95%
    23:00 +8°C° 0.4 mm 1 m/s 690 mmHg 94%

    Poimâine, 27 Aprilie, Sâmbătă

    Timp Temperatura Precipitaţii Vânt Presiune Umiditate
    00:00 +8°C° 0.4 mm 1 m/s 690 mmHg 94%
    01:00 +7°C° 0.4 mm 1 m/s 690 mmHg 94%
    02:00 +7°C° 1.1 mm 1 m/s 690 mmHg 93%
    03:00 +7°C° 1.1 mm 1 m/s 690 mmHg 92%
    04:00 +7°C° 1.1 mm 1 m/s 690 mmHg 92%
    05:00 +7°C° 0.8 mm 1 m/s 690 mmHg 90%
    06:00 +7°C° 0.8 mm 1 m/s 690 mmHg 89%
    07:00 +7°C° 0.8 mm 1 m/s 691 mmHg 88%
    08:00 +8°C° 0.3 mm 1 m/s 691 mmHg 82%
    09:00 +9°C° 0.3 mm 1 m/s 691 mmHg 76%
    10:00 +10°C° 0.3 mm 1 m/s 691 mmHg 71%
    11:00 +13°C° 0.1 mm 1 m/s 691 mmHg 64%
    12:00 +15°C° 0.1 mm 1 m/s 692 mmHg 56%
    13:00 +16°C° 0.1 mm 0 m/s 692 mmHg 49%
    14:00 +15°C° 0.2 mm 0 m/s 691 mmHg 51%
    15:00 +15°C° 0.2 mm 1 m/s 691 mmHg 53%
    16:00 +15°C° 0.2 mm 1 m/s 690 mmHg 55%
    17:00 +12°C° 0.3 mm 0 m/s 690 mmHg 63%
    18:00 +10°C° 0.3 mm 0 m/s 690 mmHg 71%
    19:00 +8°C° 0.3 mm 0 m/s 690 mmHg 80%
    20:00 +8°C° 0.3 mm 0 m/s 690 mmHg 80%
    21:00 +8°C° 0.3 mm 0 m/s 690 mmHg 81%
    22:00 +7°C° 0.3 mm 0 m/s 691 mmHg 81%
    23:00 +8°C° 1.1 mm 1 m/s 691 mmHg 84%

    28 Aprilie, Duminică

    Timp Temperatura Precipitaţii Vânt Presiune Umiditate
    00:00 +8°C° 1.1 mm 1 m/s 691 mmHg 87%
    01:00 +7°C° 1.1 mm 1 m/s 691 mmHg 90%
    02:00 +7°C° 0.9 mm 1 m/s 691 mmHg 91%
    03:00 +7°C° 0.9 mm 1 m/s 691 mmHg 92%
    04:00 +7°C° 0.9 mm 1 m/s 691 mmHg 93%
    05:00 +7°C° 0.7 mm 1 m/s 691 mmHg 93%
    06:00 +7°C° 0.7 mm 1 m/s 691 mmHg 92%
    07:00 +7°C° 0.7 mm 1 m/s 691 mmHg 92%
    08:00 +6°C° 1.8 mm 1 m/s 691 mmHg 91%
    09:00 +6°C° 1.8 mm 1 m/s 690 mmHg 91%
    10:00 +6°C° 1.8 mm 1 m/s 690 mmHg 90%
    11:00 +7°C° 1.2 mm 1 m/s 690 mmHg 89%
    12:00 +6°C° 1.2 mm 2 m/s 690 mmHg 87%
    13:00 +6°C° 1.2 mm 2 m/s 690 mmHg 86%
    14:00 +7°C° 1.8 mm 1 m/s 690 mmHg 87%
    15:00 +7°C° 1.8 mm 1 m/s 689 mmHg 89%
    16:00 +7°C° 1.8 mm 1 m/s 689 mmHg 91%
    17:00 +6°C° 3.1 mm 1 m/s 689 mmHg 93%
    18:00 +6°C° 3.1 mm 1 m/s 689 mmHg 94%
    19:00 +5°C° 3.1 mm 1 m/s 689 mmHg 95%
    20:00 +5°C° 2.6 mm 1 m/s 690 mmHg 95%
    21:00 +5°C° 2.6 mm 1 m/s 690 mmHg 96%
    22:00 +5°C° 2.6 mm 1 m/s 690 mmHg 96%
    23:00 +4°C° 1.2 mm 1 m/s 690 mmHg 96%

    29 Aprilie, Luni

    Timp Temperatura Precipitaţii Vânt Presiune Umiditate
    00:00 +3°C° 1.2 mm 2 m/s 690 mmHg 95%
    01:00 +3°C° 1.2 mm 2 m/s 690 mmHg 95%
    02:00 +3°C° 0.3 mm 2 m/s 689 mmHg 95%
    03:00 +2°C° 0.3 mm 2 m/s 689 mmHg 94%
    04:00 +2°C° 0.3 mm 2 m/s 689 mmHg 94%
    05:00 +3°C° 0.1 mm 2 m/s 689 mmHg 94%
    06:00 +4°C° 0.1 mm 2 m/s 689 mmHg 93%
    07:00 +4°C° 0.1 mm 2 m/s 689 mmHg 93%
    08:00 +5°C° 0 mm 2 m/s 689 mmHg 91%
    09:00 +6°C° 0 mm 2 m/s 689 mmHg 88%
    10:00 +7°C° 0 mm 2 m/s 690 mmHg 86%
    11:00 +8°C° 0 mm 2 m/s 690 mmHg 84%
    12:00 +9°C° 0 mm 2 m/s 689 mmHg 83%
    13:00 +9°C° 0 mm 2 m/s 689 mmHg 81%
    14:00 +9°C° 0 mm 2 m/s 689 mmHg 80%
    15:00 +9°C° 0 mm 2 m/s 689 mmHg 80%
    16:00 +10°C° 0 mm 2 m/s 689 mmHg 80%
    17:00 +8°C° 0 mm 2 m/s 689 mmHg 83%
    18:00 +7°C° 0 mm 2 m/s 689 mmHg 86%
    19:00 +6°C° 0 mm 1 m/s 688 mmHg 89%
    20:00 +5°C° 0 mm 1 m/s 689 mmHg 89%
    21:00 +5°C° 0 mm 1 m/s 689 mmHg 89%
    22:00 +4°C° 0 mm 1 m/s 689 mmHg 89%
    23:00 +4°C° 0 mm 1 m/s 689 mmHg 89%

    30 Aprilie, Marţi

    Timp Temperatura Precipitaţii Vânt Presiune Umiditate
    00:00 +3°C° 0 mm 1 m/s 689 mmHg 88%
    01:00 +3°C° 0 mm 1 m/s 689 mmHg 88%
    02:00 +3°C° 0 mm 1 m/s 688 mmHg 88%
    03:00 +3°C° 0 mm 1 m/s 688 mmHg 88%
    04:00 +3°C° 0 mm 1 m/s 688 mmHg 87%
    05:00 +5°C° 0 mm 1 m/s 688 mmHg 87%
    06:00 +6°C° 0 mm 1 m/s 688 mmHg 87%
    07:00 +7°C° 0 mm 1 m/s 688 mmHg 86%
    08:00 +9°C° 0.1 mm 1 m/s 689 mmHg 83%
    09:00 +10°C° 0.1 mm 1 m/s 689 mmHg 79%
    10:00 +12°C° 0.1 mm 1 m/s 689 mmHg 76%
    11:00 +13°C° 0.1 mm 1 m/s 689 mmHg 74%
    12:00 +14°C° 0.1 mm 1 m/s 689 mmHg 73%
    13:00 +14°C° 0.1 mm 0 m/s 689 mmHg 71%
    14:00 +14°C° 0.6 mm 1 m/s 689 mmHg 73%
    15:00 +13°C° 0.6 mm 1 m/s 688 mmHg 76%
    16:00 +12°C° 0.6 mm 1 m/s 688 mmHg 78%
    17:00 +11°C° 1 mm 1 m/s 688 mmHg 82%
    18:00 +10°C° 1 mm 1 m/s 688 mmHg 86%
    19:00 +9°C° 1 mm 1 m/s 688 mmHg 90%
    20:00 +8°C° 0.8 mm 1 m/s 688 mmHg 91%
    21:00 +8°C° 0.8 mm 1 m/s 688 mmHg 92%
    22:00 +7°C° 0.8 mm 1 m/s 689 mmHg 92%
    23:00 +6°C° 1 mm 0 m/s 689 mmHg 93%
    Arată mai mult